,,PA_Meas_PMT16A,,PR_Meas_QMR101_102,,RH_Meas_QMH101,,SR_Meas_QMS101,,TA_Meas_QMH101,,GenWind,,GenWind,
time,status,PA,status,PR,status,RH,status,SR,status,TA,status,DirAvg,status,SpdAvg,
2012-03-05, 00:00:04,VALID,916.236,VALID,0,VALID,89.6742,VALID,0.107441,VALID,20.5383,VALID,9,VALID,0.641797,
2012-03-05, 00:01:04,VALID,916.243,VALID,0,VALID,89.8191,VALID,0.107441,VALID,20.5188,VALID,9,VALID,0.780469,
2012-03-05, 00:02:04,VALID,916.229,VALID,0,VALID,90.0097,VALID,0.107441,VALID,20.4798,VALID,9,VALID,0.529297,
2012-03-05, 00:03:04,VALID,916.205,VALID,0,VALID,90.0935,VALID,0,VALID,20.4603,VALID,9,VALID,0.509766,
2012-03-05, 00:04:04,VALID,916.231,VALID,0,VALID,89.8648,VALID,0.107441,VALID,20.4408,VALID,9,VALID,1.02031,
2012-03-05, 00:05:04,VALID,916.217,VALID,0,VALID,89.7733,VALID,0.107441,VALID,20.4408,VALID,8,VALID,0.975781,
2012-03-05, 00:06:04,VALID,916.238,VALID,0,VALID,89.8648,VALID,0,VALID,20.4213,VALID,4,VALID,1.03359,
2012-03-05, 00:07:04,VALID,916.224,VALID,0,VALID,89.9639,VALID,0.107441,VALID,20.4392,VALID,3,VALID,0.6125,
2012-03-05, 00:08:04,VALID,916.215,VALID,0,VALID,89.9411,VALID,0.107441,VALID,20.4993,VALID,3,VALID,0.3,
2012-03-05, 00:09:04,VALID,916.217,VALID,0,VALID,89.9487,VALID,0.107441,VALID,20.5383,VALID,3,VALID,0.45,
2012-03-05, 00:10:04,VALID,916.203,VALID,0,VALID,89.9716,VALID,0.107441,VALID,20.5172,VALID,3,VALID,0.6875,
2012-03-05, 00:11:04,VALID,916.181,VALID,0,VALID,90.2917,VALID,0.107441,VALID,20.4993,VALID,3,VALID,0.902344,
2012-03-05, 00:12:04,VALID,916.171,VALID,0,VALID,90.5052,VALID,0.107441,VALID,20.4993,VALID,3,VALID,0.453516,
2012-03-05, 00:13:04,VALID,916.189,VALID,0,VALID,90.4366,VALID,0,VALID,20.4993,VALID,360,VALID,0.934375,
2012-03-05, 00:14:04,VALID,916.15,VALID,0,VALID,90.4823,VALID,0,VALID,20.4993,VALID,2,VALID,0.0351563,
2012-03-05, 00:15:04,VALID,916.155,VALID,0,VALID,90.3832,VALID,0,VALID,20.5188,VALID,2,VALID,0,
2012-03-05, 00:16:04,VALID,916.176,VALID,0,VALID,90.368,VALID,0,VALID,20.5188,VALID,2,VALID,0.25625,
2012-03-05, 00:17:04,VALID,916.194,VALID,0,VALID,90.3451,VALID,0,VALID,20.5383,VALID,2,VALID,0,
2012-03-05, 00:18:04,VALID,916.251,VALID,0,VALID,90.2994,VALID,0,VALID,20.5984,VALID,2,VALID,0,
2012-03-05, 00:19:04,VALID,916.244,VALID,0,VALID,90.1621,VALID,0,VALID,20.6179,VALID,2,VALID,0.0410156,
2012-03-05, 00:20:04,VALID,916.218,VALID,0,VALID,89.9029,VALID,0,VALID,20.6179,VALID,2,VALID,0,
2012-03-05, 00:21:04,VALID,916.186,VALID,0,VALID,89.7581,VALID,0,VALID,20.6163,VALID,2,VALID,0,
2012-03-05, 00:22:04,VALID,916.2,VALID,0,VALID,89.8801,VALID,0,VALID,20.6569,VALID,2,VALID,0.178125,
2012-03-05, 00:23:04,VALID,916.168,VALID,0,VALID,89.7657,VALID,0,VALID,20.6358,VALID,2,VALID,0.150391,
2012-03-05, 00:24:04,VALID,916.153,VALID,0,VALID,90.0402,VALID,0,VALID,20.6358,VALID,2,VALID,0.429688,
2012-03-05, 00:25:04,VALID,916.111,VALID,0,VALID,90.0325,VALID,0,VALID,20.5773,VALID,2,VALID,0.665625,
2012-03-05, 00:26:04,VALID,916.062,VALID,0,VALID,90.4137,VALID,0,VALID,20.5009,VALID,2,VALID,1.18398,
2012-03-05, 00:27:04,VALID,916.026,VALID,0,VALID,90.7187,VALID,0,VALID,20.4408,VALID,2,VALID,0.730078,
2012-03-05, 00:28:04,VALID,915.993,VALID,0,VALID,90.9321,VALID,0,VALID,20.4228,VALID,2,VALID,0.800391,
2012-03-05, 00:29:04,VALID,916.015,VALID,0,VALID,91.0541,VALID,0,VALID,20.4033,VALID,2,VALID,0.499219,
2012-03-05, 00:30:04,VALID,915.964,VALID,0,VALID,90.9702,VALID,0,VALID,20.4033,VALID,2,VALID,0.682422,
2012-03-05, 00:31:04,VALID,915.932,VALID,0,VALID,90.9473,VALID,0,VALID,20.3823,VALID,2,VALID,0.803906,
2012-03-05, 00:32:04,VALID,915.937,VALID,0,VALID,90.9702,VALID,0,VALID,20.4033,VALID,2,VALID,0.758984,
2012-03-05, 00:33:04,VALID,915.933,VALID,0,VALID,91.0236,VALID,0,VALID,20.3838,VALID,2,VALID,0.740625,
2012-03-05, 00:34:04,VALID,915.936,VALID,0,VALID,91.077,VALID,0,VALID,20.3838,VALID,2,VALID,0.557813,
2012-03-05, 00:35:04,VALID,915.936,VALID,0,VALID,91.2523,VALID,0,VALID,20.3838,VALID,2,VALID,0.257422,
2012-03-05, 00:36:04,VALID,915.954,VALID,0,VALID,91.1608,VALID,0,VALID,20.4033,VALID,2,VALID,0.630469,
2012-03-05, 00:37:04,VALID,915.965,VALID,0,VALID,91.1227,VALID,0,VALID,20.4228,VALID,2,VALID,0.131641,
2012-03-05, 00:38:04,VALID,915.972,VALID,0,VALID,91.2523,VALID,0,VALID,20.4228,VALID,2,VALID,0.202344,
2012-03-05, 00:39:04,VALID,915.963,VALID,0,VALID,91.2142,VALID,0,VALID,20.4423,VALID,2,VALID,0,
2012-03-05, 00:40:04,VALID,915.945,VALID,0,VALID,91.0083,VALID,0,VALID,20.4408,VALID,2,VALID,0,
2012-03-05, 00:41:04,VALID,915.879,VALID,0,VALID,90.7568,VALID,0,VALID,20.4423,VALID,2,VALID,0,
2012-03-05, 00:42:04,VALID,915.874,VALID,0,VALID,90.7339,VALID,0,VALID,20.4033,VALID,2,VALID,0,
2012-03-05, 00:43:04,VALID,915.85,VALID,0,VALID,90.7949,VALID,0,VALID,20.3838,VALID,2,VALID,0.345313,
2012-03-05, 00:44:04,VALID,915.821,VALID,0,VALID,90.955,VALID,0,VALID,20.3253,VALID,2,VALID,0.0515625,
2012-03-05, 00:45:04,VALID,915.813,VALID,0,VALID,91.3209,VALID,0,VALID,20.2473,VALID,2,VALID,0.153125,
2012-03-05, 00:46:04,VALID,915.834,VALID,0,VALID,91.7326,VALID,0,VALID,20.2278,VALID,2,VALID,0.39375,
2012-03-05, 00:47:04,VALID,915.841,VALID,0,VALID,91.7173,VALID,0,VALID,20.1888,VALID,2,VALID,0.539844,
2012-03-05, 00:48:04,VALID,915.818,VALID,0,VALID,91.9765,VALID,0,VALID,20.1693,VALID,2,VALID,0.398438,
2012-03-05, 00:49:04,VALID,915.82,VALID,0,VALID,92.1214,VALID,0,VALID,20.1498,VALID,2,VALID,0.496094,
2012-03-05, 00:50:04,VALID,915.829,VALID,0,VALID,92.1061,VALID,0,VALID,20.1108,VALID,2,VALID,0.297656,
2012-03-05, 00:51:04,VALID,915.829,VALID,0,VALID,91.8317,VALID,0,VALID,20.0313,VALID,19,VALID,1.15586,
2012-03-05, 00:52:04,VALID,915.84,VALID,0,VALID,92.251,VALID,0,VALID,20.0133,VALID,283,VALID,0.229297,
2012-03-05, 00:53:04,VALID,915.836,VALID,0,VALID,92.6245,VALID,0,VALID,20.0133,VALID,283,VALID,0.335938,
2012-03-05, 00:54:04,VALID,915.798,VALID,0,VALID,92.9447,VALID,0,VALID,20.0328,VALID,283,VALID,0.50625,
2012-03-05, 00:55:04,VALID,915.795,VALID,0,VALID,93.2115,VALID,0,VALID,20.0313,VALID,283,VALID,0.336719,
2012-03-05, 00:56:04,VALID,915.791,VALID,0,VALID,93.2725,VALID,0,VALID,20.0913,VALID,283,VALID,0.0410156,
2012-03-05, 00:57:04,VALID,915.767,VALID,0,VALID,93.0285,VALID,0,VALID,20.0913,VALID,283,VALID,0,
2012-03-05, 00:58:04,VALID,915.729,VALID,0,VALID,92.5483,VALID,0,VALID,20.0913,VALID,283,VALID,0.119531,
2012-03-05, 00:59:04,VALID,915.707,VALID,0,VALID,92.3501,VALID,0,VALID,20.0733,VALID,284,VALID,0.539453,
2012-03-05, 01:00:04,VALID,915.717,VALID,0,VALID,92.3729,VALID,0,VALID,20.0133,VALID,351,VALID,0.727734,
2012-03-05, 01:01:04,VALID,915.678,VALID,0,VALID,92.6779,VALID,0,VALID,19.9938,VALID,351,VALID,0.655469,
2012-03-05, 01:02:04,VALID,915.7,VALID,0,VALID,92.777,VALID,0.107441,VALID,19.9728,VALID,351,VALID,0.653516,
2012-03-05, 01:03:04,VALID,915.692,VALID,0,VALID,92.9294,VALID,0,VALID,19.9338,VALID,351,VALID,0.0425781,
2012-03-05, 01:04:04,VALID,915.668,VALID,0,VALID,92.9676,VALID,0,VALID,19.9143,VALID,351,VALID,0.0117188,
2012-03-05, 01:05:04,VALID,915.633,VALID,0,VALID,92.9447,VALID,0,VALID,19.8753,VALID,351,VALID,0,
2012-03-05, 01:06:04,VALID,915.596,VALID,0,VALID,93.0819,VALID,0,VALID,19.8558,VALID,351,VALID,0.517578,
2012-03-05, 01:07:04,VALID,915.558,VALID,0,VALID,93.3106,VALID,0,VALID,19.8363,VALID,351,VALID,0.343359,
2012-03-05, 01:08:04,VALID,915.558,VALID,0,VALID,93.5774,VALID,0.107441,VALID,19.8168,VALID,351,VALID,0.651953,
2012-03-05, 01:09:04,VALID,915.53,VALID,0,VALID,94.2559,VALID,0,VALID,19.8768,VALID,279,VALID,0.485156,
2012-03-05, 01:10:04,VALID,915.498,VALID,0,VALID,94.3779,VALID,0.107441,VALID,19.9353,VALID,279,VALID,0.158984,
2012-03-05, 01:11:04,VALID,915.527,VALID,0,VALID,94.3474,VALID,0,VALID,19.9143,VALID,279,VALID,0,
2012-03-05, 01:12:04,VALID,915.481,VALID,0,VALID,94.012,VALID,0,VALID,19.9143,VALID,279,VALID,0.0835937,
2012-03-05, 01:13:04,VALID,915.455,VALID,0,VALID,93.8214,VALID,0,VALID,19.8948,VALID,279,VALID,0.390234,
2012-03-05, 01:14:04,VALID,915.417,VALID,0,VALID,93.9891,VALID,0,VALID,19.8753,VALID,279,VALID,0.414063,
2012-03-05, 01:15:04,VALID,915.444,VALID,0,VALID,94.0882,VALID,0.107441,VALID,19.8753,VALID,279,VALID,0,
2012-03-05, 01:16:04,VALID,915.423,VALID,0,VALID,94.3245,VALID,0.107441,VALID,19.9143,VALID,279,VALID,0,
2012-03-05, 01:17:04,VALID,915.434,VALID,0,VALID,94.1644,VALID,0.107441,VALID,19.9158,VALID,279,VALID,0,
2012-03-05, 01:18:04,VALID,915.406,VALID,0,VALID,94.0958,VALID,0,VALID,19.8948,VALID,279,VALID,0.188672,
2012-03-05, 01:19:04,VALID,915.408,VALID,0,VALID,94.0425,VALID,0.107441,VALID,19.8948,VALID,279,VALID,0.247656,
2012-03-05, 01:20:04,VALID,915.419,VALID,0,VALID,94.012,VALID,0.107441,VALID,19.8948,VALID,279,VALID,0,
2012-03-05, 01:21:04,VALID,915.408,VALID,0,VALID,93.9357,VALID,0,VALID,19.8948,VALID,279,VALID,0,
2012-03-05, 01:22:04,VALID,915.42,VALID,0,VALID,93.9129,VALID,0.107441,VALID,19.8948,VALID,279,VALID,0,
2012-03-05, 01:23:04,VALID,915.398,VALID,0,VALID,94.0501,VALID,0.107441,VALID,19.9128,VALID,279,VALID,0.0589844,
2012-03-05, 01:24:04,VALID,915.388,VALID,0,VALID,93.9586,VALID,0.107441,VALID,19.9143,VALID,279,VALID,0.197266,
2012-03-05, 01:25:04,VALID,915.354,VALID,0,VALID,93.8443,VALID,0.107441,VALID,19.8948,VALID,280,VALID,0.622266,
2012-03-05, 01:26:04,VALID,915.327,VALID,0,VALID,94.0196,VALID,0.107441,VALID,19.9143,VALID,2,VALID,0.563672,
2012-03-05, 01:27:04,VALID,915.268,VALID,0,VALID,94.3931,VALID,0,VALID,19.9338,VALID,2,VALID,1.37539,
2012-03-05, 01:28:04,VALID,915.237,VALID,0,VALID,94.1187,VALID,0.107441,VALID,19.9323,VALID,2,VALID,0.9125,
2012-03-05, 01:29:04,VALID,915.211,VALID,0,VALID,94.4084,VALID,0,VALID,19.9728,VALID,348,VALID,0.994141,
2012-03-05, 01:30:04,VALID,915.16,VALID,0,VALID,94.3855,VALID,0,VALID,20.0328,VALID,357,VALID,0.928516,
2012-03-05, 01:31:04,VALID,915.122,VALID,0,VALID,94.3779,VALID,0,VALID,20.0508,VALID,357,VALID,0.794141,
2012-03-05, 01:32:04,VALID,915.061,VALID,0,VALID,94.3931,VALID,0.107441,VALID,20.0703,VALID,357,VALID,0.766406,
2012-03-05, 01:33:04,VALID,915.051,VALID,0,VALID,94.2483,VALID,0,VALID,20.1093,VALID,357,VALID,0.632813,
2012-03-05, 01:34:04,VALID,915.032,VALID,0,VALID,94.1949,VALID,0,VALID,20.1288,VALID,357,VALID,0.427734,
2012-03-05, 01:35:04,VALID,914.985,VALID,0,VALID,93.9052,VALID,0,VALID,20.1498,VALID,357,VALID,0.365625,
2012-03-05, 01:36:04,VALID,914.992,VALID,0,VALID,93.6613,VALID,0.107441,VALID,20.1093,VALID,357,VALID,0.603125,
2012-03-05, 01:37:04,VALID,914.969,VALID,0,VALID,93.5622,VALID,0.107441,VALID,20.1093,VALID,357,VALID,0.497656,
2012-03-05, 01:38:04,VALID,914.95,VALID,0,VALID,93.951,VALID,0,VALID,20.1077,VALID,358,VALID,0.944531,
2012-03-05, 01:39:04,VALID,914.914,VALID,0,VALID,93.7909,VALID,0,VALID,20.1303,VALID,358,VALID,0.579687,
2012-03-05, 01:40:04,VALID,914.898,VALID,0,VALID,93.6689,VALID,0,VALID,20.0898,VALID,358,VALID,0.476563,
2012-03-05, 01:41:04,VALID,914.881,VALID,0,VALID,93.7223,VALID,0.107441,VALID,20.0703,VALID,358,VALID,0.173047,
2012-03-05, 01:42:04,VALID,914.895,VALID,0,VALID,93.89,VALID,0,VALID,20.0508,VALID,358,VALID,0.253125,
2012-03-05, 01:43:04,VALID,914.872,VALID,0,VALID,93.9967,VALID,0,VALID,20.0718,VALID,358,VALID,0.296875,
2012-03-05, 01:44:04,VALID,914.865,VALID,0,VALID,94.0196,VALID,0,VALID,20.0328,VALID,358,VALID,0.40625,
2012-03-05, 01:45:04,VALID,914.842,VALID,0,VALID,94.0653,VALID,0,VALID,19.9728,VALID,358,VALID,0.627734,
2012-03-05, 01:46:04,VALID,914.872,VALID,0,VALID,94.1339,VALID,0,VALID,19.9758,VALID,358,VALID,0.748438,
2012-03-05, 01:47:04,VALID,914.903,VALID,0,VALID,94.4008,VALID,0,VALID,19.9743,VALID,358,VALID,0.666016,
2012-03-05, 01:48:04,VALID,914.938,VALID,0,VALID,94.5837,VALID,0,VALID,19.9743,VALID,358,VALID,0.603516,
2012-03-05, 01:49:04,VALID,914.964,VALID,0,VALID,94.6676,VALID,0,VALID,19.9743,VALID,358,VALID,0.528516,
2012-03-05, 01:50:04,VALID,915.027,VALID,0,VALID,94.6828,VALID,0,VALID,19.9953,VALID,2,VALID,1.16289,
2012-03-05, 01:51:04,VALID,915.011,VALID,0,VALID,94.7743,VALID,0,VALID,20.0133,VALID,5,VALID,0.638281,
2012-03-05, 01:52:04,VALID,915.002,VALID,0,VALID,94.82,VALID,0,VALID,20.0328,VALID,5,VALID,0.597656,
2012-03-05, 01:53:04,VALID,915.026,VALID,0,VALID,94.7972,VALID,0,VALID,20.0928,VALID,5,VALID,0.545703,
2012-03-05, 01:54:04,VALID,915.028,VALID,0,VALID,94.6752,VALID,0,VALID,20.0928,VALID,5,VALID,0.925391,
2012-03-05, 01:55:04,VALID,915.027,VALID,0,VALID,94.6371,VALID,0,VALID,20.0913,VALID,5,VALID,0.586719,
2012-03-05, 01:56:04,VALID,915.016,VALID,0,VALID,94.7133,VALID,0,VALID,20.1318,VALID,5,VALID,0.429297,
2012-03-05, 01:57:04,VALID,915.022,VALID,0,VALID,94.7286,VALID,0,VALID,20.1498,VALID,5,VALID,0.510156,
2012-03-05, 01:58:04,VALID,915.043,VALID,0,VALID,94.6295,VALID,0,VALID,20.1903,VALID,5,VALID,0.163672,
2012-03-05, 01:59:04,VALID,915.083,VALID,0,VALID,94.5609,VALID,0,VALID,20.1873,VALID,5,VALID,0.678125,
2012-03-05, 02:00:04,VALID,915.086,VALID,0,VALID,94.5761,VALID,0,VALID,20.2068,VALID,5,VALID,0.333594,
2012-03-05, 02:01:04,VALID,915.028,VALID,0,VALID,94.4999,VALID,0.107441,VALID,20.2278,VALID,14,VALID,1.49023,
2012-03-05, 02:02:04,VALID,915.051,VALID,0,VALID,94.3931,VALID,0,VALID,20.2068,VALID,31,VALID,0.707812,
2012-03-05, 02:03:04,VALID,915.041,VALID,0,VALID,94.294,VALID,0,VALID,20.2263,VALID,351,VALID,0.491797,
2012-03-05, 02:04:04,VALID,915.03,VALID,0,VALID,94.3093,VALID,0,VALID,20.2653,VALID,351,VALID,0.135547,
2012-03-05, 02:05:04,VALID,915.015,VALID,0,VALID,94.2178,VALID,0,VALID,20.2653,VALID,351,VALID,0.490234,
2012-03-05, 02:06:04,VALID,914.961,VALID,0,VALID,94.1644,VALID,0,VALID,20.3058,VALID,351,VALID,0.80625,
2012-03-05, 02:07:04,VALID,914.951,VALID,0,VALID,94.1492,VALID,0,VALID,20.3253,VALID,351,VALID,0.295703,
2012-03-05, 02:08:04,VALID,914.916,VALID,0,VALID,93.8595,VALID,0.107441,VALID,20.3253,VALID,15,VALID,0.991016,
2012-03-05, 02:09:04,VALID,914.925,VALID,0,VALID,93.8061,VALID,0,VALID,20.2848,VALID,4,VALID,0.773828,
2012-03-05, 02:10:04,VALID,914.882,VALID,0,VALID,93.8824,VALID,0.107441,VALID,20.3058,VALID,3,VALID,0.375781,
2012-03-05, 02:11:04,VALID,914.892,VALID,0,VALID,93.9357,VALID,0,VALID,20.3043,VALID,3,VALID,0.653125,
2012-03-05, 02:12:04,VALID,914.837,VALID,0,VALID,93.951,VALID,0.107441,VALID,20.2848,VALID,2,VALID,0.903125,
2012-03-05, 02:13:04,VALID,914.823,VALID,0,VALID,93.9434,VALID,0,VALID,20.2848,VALID,2,VALID,1.09531,
2012-03-05, 02:14:04,VALID,914.839,VALID,0,VALID,93.9738,VALID,0,VALID,20.2863,VALID,2,VALID,0.753125,
2012-03-05, 02:15:04,VALID,914.823,VALID,0,VALID,93.8747,VALID,0,VALID,20.3074,VALID,2,VALID,0.598437,
2012-03-05, 02:16:04,VALID,914.822,VALID,0,VALID,93.7604,VALID,0,VALID,20.2863,VALID,2,VALID,0.825,
2012-03-05, 02:17:04,VALID,914.808,VALID,0,VALID,93.768,VALID,0,VALID,20.2879,VALID,2,VALID,0.715234,
2012-03-05, 02:18:04,VALID,914.811,VALID,0,VALID,93.8214,VALID,0,VALID,20.2879,VALID,2,VALID,0.660547,
2012-03-05, 02:19:04,VALID,914.773,VALID,0,VALID,93.8366,VALID,0,VALID,20.2473,VALID,2,VALID,0.283203,
2012-03-05, 02:20:04,VALID,914.731,VALID,0,VALID,93.7756,VALID,0,VALID,20.2684,VALID,2,VALID,0.790234,
2012-03-05, 02:21:04,VALID,914.723,VALID,0,VALID,93.8061,VALID,0,VALID,20.2684,VALID,2,VALID,0.589453,
2012-03-05, 02:22:04,VALID,914.717,VALID,0,VALID,93.6765,VALID,0,VALID,20.2668,VALID,2,VALID,0.940625,
2012-03-05, 02:23:04,VALID,914.684,VALID,0,VALID,93.7451,VALID,0,VALID,20.2489,VALID,3,VALID,0.919531,
2012-03-05, 02:24:04,VALID,914.713,VALID,0,VALID,93.7528,VALID,0,VALID,20.2489,VALID,3,VALID,0.398828,
2012-03-05, 02:25:04,VALID,914.696,VALID,0,VALID,93.8214,VALID,0,VALID,20.2278,VALID,3,VALID,0.380469,
2012-03-05, 02:26:04,VALID,914.728,VALID,0,VALID,93.8747,VALID,0,VALID,20.2083,VALID,3,VALID,0,
2012-03-05, 02:27:04,VALID,914.675,VALID,0,VALID,93.8976,VALID,0,VALID,20.2293,VALID,3,VALID,0.0816406,
2012-03-05, 02:28:04,VALID,914.69,VALID,0,VALID,93.9357,VALID,0,VALID,20.2489,VALID,3,VALID,0.358203,
2012-03-05, 02:29:04,VALID,914.649,VALID,0,VALID,93.4936,VALID,0.107441,VALID,20.2278,VALID,261,VALID,1.18633,
2012-03-05, 02:30:04,VALID,914.66,VALID,0,VALID,93.1581,VALID,0,VALID,20.2263,VALID,359,VALID,0.966797,
2012-03-05, 02:31:04,VALID,914.669,VALID,0,VALID,92.9599,VALID,0,VALID,20.2668,VALID,359,VALID,0.367188,
2012-03-05, 02:32:04,VALID,914.621,VALID,0,VALID,92.8913,VALID,0.107441,VALID,20.2863,VALID,31,VALID,1.24023,
2012-03-05, 02:33:04,VALID,914.626,VALID,0,VALID,92.9981,VALID,0,VALID,20.2653,VALID,24,VALID,0.698047,
2012-03-05, 02:34:04,VALID,914.602,VALID,0,VALID,92.8151,VALID,0,VALID,20.2653,VALID,318,VALID,1.22109,
2012-03-05, 02:35:04,VALID,914.629,VALID,0,VALID,92.8303,VALID,0,VALID,20.2668,VALID,327,VALID,0.529297,
2012-03-05, 02:36:04,VALID,914.597,VALID,0,VALID,92.8532,VALID,0,VALID,20.2068,VALID,349,VALID,0.784766,
2012-03-05, 02:37:04,VALID,914.614,VALID,0,VALID,92.8151,VALID,0.107441,VALID,20.2068,VALID,360,VALID,0.746484,
2012-03-05, 02:38:04,VALID,914.623,VALID,0,VALID,92.9981,VALID,0,VALID,20.1678,VALID,360,VALID,0.137109,
2012-03-05, 02:39:04,VALID,914.614,VALID,0,VALID,93.1429,VALID,0,VALID,20.1678,VALID,360,VALID,0.245312,
2012-03-05, 02:40:04,VALID,914.584,VALID,0,VALID,93.1734,VALID,0,VALID,20.1678,VALID,360,VALID,0.284766,
2012-03-05, 02:41:04,VALID,914.526,VALID,0,VALID,93.1353,VALID,0,VALID,20.1873,VALID,19,VALID,0.99375,
2012-03-05, 02:42:04,VALID,914.545,VALID,0,VALID,92.8303,VALID,0,VALID,20.1888,VALID,343,VALID,1.47344,
2012-03-05, 02:43:04,VALID,914.518,VALID,0,VALID,92.8075,VALID,0,VALID,20.2083,VALID,15,VALID,0.464063,
2012-03-05, 02:44:04,VALID,914.538,VALID,0,VALID,92.777,VALID,0.107441,VALID,20.2068,VALID,15,VALID,0,
2012-03-05, 02:45:04,VALID,914.532,VALID,0,VALID,92.8456,VALID,0,VALID,20.1873,VALID,15,VALID,0.785937,
2012-03-05, 02:46:04,VALID,914.533,VALID,0,VALID,92.8151,VALID,0,VALID,20.1873,VALID,15,VALID,0.3875,
2012-03-05, 02:47:04,VALID,914.535,VALID,0,VALID,92.7922,VALID,0,VALID,20.1678,VALID,15,VALID,0.679297,
2012-03-05, 02:48:04,VALID,914.512,VALID,0,VALID,92.8837,VALID,0,VALID,20.1288,VALID,15,VALID,1.06992,
2012-03-05, 02:49:04,VALID,914.523,VALID,0,VALID,92.9371,VALID,0.107441,VALID,20.1288,VALID,13,VALID,0.99375,
2012-03-05, 02:50:04,VALID,914.514,VALID,0,VALID,92.8837,VALID,0,VALID,20.1077,VALID,24,VALID,0.307031,
2012-03-05, 02:51:04,VALID,914.509,VALID,0,VALID,92.8685,VALID,0,VALID,20.1498,VALID,24,VALID,0.217578,
2012-03-05, 02:52:04,VALID,914.498,VALID,0,VALID,92.8608,VALID,0.107441,VALID,20.1288,VALID,23,VALID,0.357422,
2012-03-05, 02:53:04,VALID,914.512,VALID,0,VALID,92.8608,VALID,0,VALID,20.1498,VALID,23,VALID,0.461719,
2012-03-05, 02:54:04,VALID,914.473,VALID,0,VALID,92.8456,VALID,0.107441,VALID,20.1483,VALID,23,VALID,0.00117188,
2012-03-05, 02:55:04,VALID,914.495,VALID,0,VALID,92.8456,VALID,0.107441,VALID,20.1483,VALID,23,VALID,0.245703,
2012-03-05, 02:56:04,VALID,914.503,VALID,0,VALID,92.8303,VALID,0,VALID,20.1693,VALID,23,VALID,0,
2012-03-05, 02:57:04,VALID,914.525,VALID,0,VALID,92.8075,VALID,0,VALID,20.1693,VALID,23,VALID,0,
2012-03-05, 02:58:04,VALID,914.525,VALID,0,VALID,92.7922,VALID,0,VALID,20.1483,VALID,24,VALID,0,
2012-03-05, 02:59:04,VALID,914.511,VALID,0,VALID,92.7236,VALID,0,VALID,20.1498,VALID,314,VALID,0.735547,
2012-03-05, 03:00:04,VALID,914.549,VALID,0,VALID,92.6931,VALID,0,VALID,20.1498,VALID,311,VALID,0.429688,
2012-03-05, 03:01:04,VALID,914.54,VALID,0,VALID,92.6931,VALID,0,VALID,20.1498,VALID,311,VALID,0.274219,
2012-03-05, 03:02:04,VALID,914.524,VALID,0,VALID,92.8303,VALID,0,VALID,20.1108,VALID,311,VALID,0,
2012-03-05, 03:03:04,VALID,914.465,VALID,0,VALID,92.9904,VALID,0,VALID,20.1303,VALID,311,VALID,0,
2012-03-05, 03:04:04,VALID,914.498,VALID,0,VALID,92.9981,VALID,0,VALID,20.1303,VALID,311,VALID,0,
2012-03-05, 03:05:04,VALID,914.501,VALID,0,VALID,92.9066,VALID,0,VALID,20.1303,VALID,311,VALID,0,
2012-03-05, 03:06:04,VALID,914.45,VALID,0,VALID,92.838,VALID,0,VALID,20.1303,VALID,311,VALID,0.221484,
2012-03-05, 03:07:04,VALID,914.476,VALID,0,VALID,92.838,VALID,0,VALID,20.0898,VALID,315,VALID,0.356641,
2012-03-05, 03:08:04,VALID,914.509,VALID,0,VALID,92.9218,VALID,0,VALID,20.0913,VALID,333,VALID,0.510547,
2012-03-05, 03:09:04,VALID,914.518,VALID,0,VALID,92.9904,VALID,0,VALID,20.0718,VALID,333,VALID,0.558984,
2012-03-05, 03:10:04,VALID,914.546,VALID,0,VALID,93.0972,VALID,0,VALID,20.0328,VALID,333,VALID,0.630078,
2012-03-05, 03:11:04,VALID,914.552,VALID,0,VALID,93.3106,VALID,0,VALID,20.0328,VALID,333,VALID,0.650391,
2012-03-05, 03:12:04,VALID,914.501,VALID,0,VALID,93.4707,VALID,0,VALID,19.9728,VALID,333,VALID,1.08633,
2012-03-05, 03:13:04,VALID,914.534,VALID,0,VALID,93.6079,VALID,0.107441,VALID,19.9728,VALID,357,VALID,1.23477,
2012-03-05, 03:14:04,VALID,914.515,VALID,0,VALID,93.6842,VALID,0,VALID,19.9938,VALID,357,VALID,1.06016,
2012-03-05, 03:15:04,VALID,914.462,VALID,0,VALID,93.7375,VALID,0,VALID,19.9728,VALID,357,VALID,1.06992,
2012-03-05, 03:16:04,VALID,914.478,VALID,0,VALID,93.829,VALID,0,VALID,19.9743,VALID,357,VALID,1.06133,
2012-03-05, 03:17:04,VALID,914.432,VALID,0,VALID,93.9662,VALID,0,VALID,19.9743,VALID,17,VALID,1.37383,
2012-03-05, 03:18:04,VALID,914.462,VALID,0,VALID,93.9205,VALID,0,VALID,19.9338,VALID,12,VALID,1.38672,
2012-03-05, 03:19:04,VALID,914.461,VALID,0,VALID,93.9662,VALID,0,VALID,19.9548,VALID,358,VALID,1.25078,
2012-03-05, 03:20:04,VALID,914.383,VALID,0,VALID,94.0882,VALID,0,VALID,19.9743,VALID,12,VALID,1.7332,
2012-03-05, 03:21:04,VALID,914.341,VALID,0,VALID,94.0958,VALID,0,VALID,19.9743,VALID,12,VALID,1.46758,
2012-03-05, 03:22:04,VALID,914.331,VALID,0,VALID,94.1187,VALID,0,VALID,19.9743,VALID,28,VALID,1.10117,
2012-03-05, 03:23:04,VALID,914.301,VALID,0,VALID,94.1111,VALID,0,VALID,19.9743,VALID,14,VALID,1.36992,
2012-03-05, 03:24:04,VALID,914.282,VALID,0,VALID,94.1263,VALID,0,VALID,19.9548,VALID,12,VALID,1.01563,
2012-03-05, 03:25:04,VALID,914.238,VALID,0,VALID,94.1797,VALID,0.107441,VALID,19.9353,VALID,12,VALID,0.849219,
2012-03-05, 03:26:04,VALID,914.246,VALID,0,VALID,94.2254,VALID,0,VALID,19.9143,VALID,12,VALID,0.928516,
2012-03-05, 03:27:04,VALID,914.208,VALID,0,VALID,94.2864,VALID,0,VALID,19.9143,VALID,33,VALID,1.99727,
2012-03-05, 03:28:04,VALID,914.215,VALID,0,VALID,94.2178,VALID,0,VALID,19.8948,VALID,360,VALID,1.59414,
2012-03-05, 03:29:04,VALID,914.21,VALID,0,VALID,94.2254,VALID,0,VALID,19.8963,VALID,359,VALID,1.12188,
2012-03-05, 03:30:04,VALID,914.192,VALID,0,VALID,94.2254,VALID,0,VALID,19.8963,VALID,359,VALID,0.878516,
2012-03-05, 03:31:04,VALID,914.148,VALID,0,VALID,94.1644,VALID,0,VALID,19.9158,VALID,359,VALID,0.755078,
2012-03-05, 03:32:04,VALID,914.128,VALID,0,VALID,94.1263,VALID,0,VALID,19.9368,VALID,359,VALID,1.62539,
2012-03-05, 03:33:04,VALID,914.09,VALID,0,VALID,94.0425,VALID,0,VALID,19.9158,VALID,359,VALID,1.14688,
2012-03-05, 03:34:04,VALID,914.057,VALID,0,VALID,94.0501,VALID,0,VALID,19.9368,VALID,359,VALID,0.969141,
2012-03-05, 03:35:04,VALID,914.004,VALID,0,VALID,93.951,VALID,0,VALID,19.9368,VALID,359,VALID,1.6668,
2012-03-05, 03:36:04,VALID,914.005,VALID,0,VALID,93.7909,VALID,0,VALID,19.9353,VALID,359,VALID,1.54414,
2012-03-05, 03:37:04,VALID,913.981,VALID,0,VALID,93.5927,VALID,0,VALID,19.9953,VALID,359,VALID,0.840234,
2012-03-05, 03:38:04,VALID,913.955,VALID,0,VALID,93.4326,VALID,0,VALID,19.9938,VALID,18,VALID,1.51289,
2012-03-05, 03:39:04,VALID,913.997,VALID,0,VALID,93.3259,VALID,0,VALID,19.9938,VALID,14,VALID,1.02305,
2012-03-05, 03:40:04,VALID,914.001,VALID,0,VALID,93.3487,VALID,0,VALID,20.0148,VALID,17,VALID,0.703516,
2012-03-05, 03:41:04,VALID,914.007,VALID,0,VALID,93.3259,VALID,0,VALID,20.0148,VALID,17,VALID,0.913281,
2012-03-05, 03:42:04,VALID,914.015,VALID,0,VALID,93.3716,VALID,0,VALID,19.9938,VALID,17,VALID,0.616016,
2012-03-05, 03:43:04,VALID,913.986,VALID,0,VALID,93.4555,VALID,0,VALID,20.0343,VALID,17,VALID,0.608203,
2012-03-05, 03:44:04,VALID,914.011,VALID,0,VALID,93.5012,VALID,0,VALID,19.9923,VALID,17,VALID,0.620313,
2012-03-05, 03:45:04,VALID,914.007,VALID,0,VALID,93.4478,VALID,0,VALID,19.9923,VALID,345,VALID,0.394922,